Date String (YYYY-MM-DD hh:mm:ss) UTC,Instrument flags,Ambient pressure (hPa),Sample flow (lpm),Bypass flow (lpm),Sample temperature (°C),Ambient temperature (°C),ASC tube jacket temperature (°C),LED temperature (°C),Box temperature (°C),Sample RH (%),Span deviation,Mass concentration (μg/m³),Mass concentration (μg/m³),Mass concentration (μg/m³)
DateTimeUTC,F1_M11,P_M11,Q1_M11,Q2_M11,T1_M11,T2_M11,T3_M11,T4_M11,T5_M11,U1_M11,ZSPAN_M11,X2_M11,X0_M11,X1_M11
2023-02-19 04:00:00,,0817.5,5.00,0.00,22.0,20.2,00.0,31.0,23.6,05.4,0000.0,0002.73,0008.66,0001.52
2023-02-19 04:01:00,,0817.4,5.00,0.00,22.0,20.2,00.0,31.0,23.5,05.7,0000.0,0002.74,0008.41,0001.54
2023-02-19 04:02:00,,0817.5,5.02,0.00,21.9,20.1,00.0,30.9,23.5,05.5,0000.0,0002.81,0008.40,0001.54
2023-02-19 04:03:00,,0817.5,5.00,0.00,21.9,20.1,00.0,30.9,23.4,05.3,0000.0,0002.79,0008.28,0001.54
2023-02-19 04:04:00,,0817.5,5.03,0.00,21.9,20.3,00.0,30.9,23.5,05.5,0000.0,0002.69,0008.09,0001.54
2023-02-19 04:05:00,,0817.5,4.96,0.00,22.0,21.6,00.0,30.8,23.8,05.7,0000.0,0002.66,0007.78,0001.54
2023-02-19 04:06:00,,0817.6,4.98,0.00,22.1,22.7,00.0,30.8,24.1,05.8,0000.0,0002.67,0007.37,0001.54
2023-02-19 04:07:00,,0817.5,4.98,0.00,22.2,22.8,00.0,30.9,24.2,06.0,0000.0,0002.63,0005.86,0001.54
2023-02-19 04:08:00,,0817.5,4.99,0.00,22.2,22.2,00.0,30.9,24.1,06.3,0000.0,0002.54,0005.06,0001.53
2023-02-19 04:09:00,,0817.5,5.01,0.00,22.2,21.7,00.0,31.0,24.0,05.5,0000.0,0002.60,0005.18,0001.54
2023-02-19 04:10:00,,0817.6,4.99,0.00,22.2,21.3,00.0,31.0,24.0,05.2,0000.0,0002.66,0005.27,0001.54
2023-02-19 04:11:00,,0817.7,5.01,0.00,22.2,21.0,00.0,31.0,23.9,05.3,0000.0,0002.69,0005.62,0001.55
2023-02-19 04:12:00,,0817.7,5.00,0.00,22.2,20.8,00.0,31.0,23.9,05.5,0000.0,0002.71,0006.98,0001.54
2023-02-19 04:13:00,,0817.7,5.00,0.00,22.2,20.7,00.0,31.0,23.9,05.8,0000.0,0002.65,0007.06,0001.53
2023-02-19 04:14:00,,0817.8,4.99,0.00,22.1,20.6,00.0,31.0,23.8,05.9,0000.0,0002.60,0007.31,0001.53
2023-02-19 04:15:00,,0817.7,5.00,0.00,22.1,20.5,00.0,31.0,23.8,05.8,0000.0,0002.59,0007.74,0001.55
2023-02-19 04:16:00,,0817.7,5.01,0.00,22.1,20.4,00.0,31.0,23.8,05.7,0000.0,0002.59,0008.27,0001.57
2023-02-19 04:17:00,,0817.7,5.00,0.00,22.1,20.3,00.0,31.0,23.7,05.5,0000.0,0002.61,0008.71,0001.57
2023-02-19 04:18:00,,0817.7,4.99,0.00,22.0,20.2,00.0,31.0,23.7,05.7,0000.0,0002.66,0008.95,0001.58
2023-02-19 04:19:00,,0817.7,5.01,0.00,22.0,20.2,00.0,31.0,23.7,05.6,0000.0,0002.70,0009.28,0001.58
2023-02-19 04:20:00,,0817.6,5.00,0.00,22.0,20.1,00.0,31.0,23.6,05.3,0000.0,0002.72,0009.41,0001.57
2023-02-19 04:21:00,,0817.7,5.00,0.00,21.9,20.1,00.0,30.9,23.6,05.3,0000.0,0002.80,0009.53,0001.56
2023-02-19 04:22:00,,0817.6,5.00,0.00,21.9,20.0,00.0,30.9,23.5,05.8,0000.0,0002.79,0009.38,0001.56
2023-02-19 04:23:00,,0817.6,5.01,0.00,21.9,20.7,00.0,30.9,23.7,05.6,0000.0,0002.80,0008.78,0001.57
2023-02-19 04:24:00,,0817.5,5.00,0.00,22.0,22.0,00.0,30.8,24.0,05.2,0000.0,0002.80,0008.62,0001.56
2023-02-19 04:25:00,,0817.5,5.07,0.00,22.2,23.0,00.0,30.8,24.3,05.3,0000.0,0002.76,0008.28,0001.55
2023-02-19 04:26:00,,0817.5,5.02,0.00,22.3,22.7,00.0,30.9,24.2,05.1,0000.0,0002.73,0007.86,0001.52
2023-02-19 04:27:00,,0817.5,4.98,0.00,22.3,22.0,00.0,31.0,24.1,05.2,0000.0,0002.70,0007.17,0001.49
2023-02-19 04:28:00,,0817.6,5.00,0.00,22.2,21.6,00.0,31.0,24.0,05.0,0000.0,0002.71,0006.56,0001.47
2023-02-19 04:29:00,,0817.6,4.96,0.00,22.2,21.2,00.0,31.0,23.9,05.1,0000.0,0002.69,0006.14,0001.47
2023-02-19 04:30:00,,0817.6,5.01,0.00,22.2,20.9,00.0,31.0,23.8,05.3,0000.0,0002.72,0005.77,0001.47
2023-02-19 04:31:00,,0817.6,5.01,0.00,22.1,20.6,00.0,31.0,23.7,05.2,0000.0,0002.68,0005.58,0001.47
2023-02-19 04:32:00,,0817.7,4.99,0.00,22.1,20.5,00.0,31.0,23.7,05.2,0000.0,0002.61,0005.41,0001.47
2023-02-19 04:33:00,,0817.6,5.01,0.00,22.1,20.4,00.0,31.0,23.7,05.1,0000.0,0002.62,0005.41,0001.46
2023-02-19 04:34:00,,0817.8,5.00,0.00,22.0,20.3,00.0,31.0,23.6,05.2,0000.0,0002.60,0005.33,0001.44
2023-02-19 04:35:00,,0817.9,5.00,0.00,22.0,20.2,00.0,31.0,23.6,05.7,0000.0,0002.60,0005.32,0001.44
2023-02-19 04:36:00,,0818.0,5.01,0.00,22.0,20.2,00.0,31.0,23.6,06.1,0000.0,0002.60,0005.37,0001.45
2023-02-19 04:37:00,,0817.9,5.00,0.00,22.0,20.2,00.0,31.0,23.6,06.4,0000.0,0002.67,0005.82,0001.49
2023-02-19 04:38:00,,0817.9,5.01,0.00,21.9,20.2,00.0,31.0,23.6,06.7,0000.0,0002.74,0006.07,0001.51
2023-02-19 04:39:00,,0818.0,4.99,0.00,21.9,20.2,00.0,31.0,23.6,06.6,0000.0,0002.76,0006.49,0001.53
2023-02-19 04:40:00,,0818.0,5.00,0.00,21.9,20.2,00.0,30.9,23.7,06.3,0000.0,0002.83,0006.73,0001.56
2023-02-19 04:41:00,,0818.0,5.00,0.00,21.9,20.2,00.0,30.9,23.6,06.2,0000.0,0002.85,0006.73,0001.58
2023-02-19 04:42:00,,0818.0,5.00,0.00,21.9,20.1,00.0,30.9,23.6,06.1,0000.0,0002.85,0006.97,0001.61
2023-02-19 04:43:00,,0817.9,5.00,0.00,21.9,20.5,00.0,30.9,23.7,06.1,0000.0,0002.90,0007.18,0001.64
2023-02-19 04:44:00,,0817.9,4.98,0.00,22.0,21.8,00.0,30.8,24.0,06.1,0000.0,0002.91,0007.25,0001.65
2023-02-19 04:45:00,,0818.0,4.90,0.00,22.2,23.0,00.0,30.8,24.3,06.0,0000.0,0002.95,0007.24,0001.67
2023-02-19 04:46:00,,0818.1,5.08,0.00,22.3,23.1,00.0,30.9,24.4,05.9,0000.0,0002.98,0007.24,0001.70
2023-02-19 04:47:00,,0818.2,5.01,0.00,22.3,22.6,00.0,31.0,24.3,05.8,0000.0,0003.01,0007.32,0001.71
2023-02-19 04:48:00,,0818.2,4.99,0.00,22.3,22.1,00.0,31.0,24.2,05.7,0000.0,0002.97,0006.96,0001.69
2023-02-19 04:49:00,,0818.0,4.99,0.00,22.3,21.8,00.0,31.0,24.2,05.8,0000.0,0002.88,0006.58,0001.69
2023-02-19 04:50:00,,0818.0,5.01,0.00,22.3,21.5,00.0,31.1,24.2,06.0,0000.0,0002.83,0006.02,0001.67
2023-02-19 04:51:00,,0818.0,4.98,0.00,22.3,21.3,00.0,31.1,24.1,06.0,0000.0,0002.82,0007.37,0001.65
2023-02-19 04:52:00,,0818.0,5.00,0.00,22.3,21.0,00.0,31.1,24.1,05.9,0000.0,0002.76,0007.86,0001.64
2023-02-19 04:53:00,,0818.0,5.01,0.00,22.3,20.9,00.0,31.1,24.1,06.2,0000.0,0002.77,0008.42,0001.63
2023-02-19 04:54:00,,0818.0,5.01,0.00,22.3,20.8,00.0,31.1,24.0,06.3,0000.0,0002.75,0008.36,0001.60
2023-02-19 04:55:00,,0818.0,4.99,0.00,22.3,20.7,00.0,31.1,24.0,06.4,0000.0,0002.73,0008.37,0001.60
2023-02-19 04:56:00,,0818.0,5.01,0.00,22.3,20.7,00.0,31.1,24.0,06.2,0000.0,0002.77,0008.94,0001.62
2023-02-19 04:57:00,,0817.9,5.01,0.00,22.2,20.6,00.0,31.1,23.9,06.3,0000.0,0002.75,0009.37,0001.60
2023-02-19 04:58:00,,0817.9,5.01,0.00,22.2,20.5,00.0,31.1,23.9,06.3,0000.0,0002.74,0009.30,0001.60
2023-02-19 04:59:00,,0818.0,5.01,0.00,22.2,20.5,00.0,31.1,23.9,06.2,0000.0,0002.84,0009.63,0001.62
